When you browse on this site, cookies collect data to enhance your experience and personalize the content and advertising you see.
Visit our Privacy Policy to learn more. By continuing to use the site, you agree to this use of cookies and data.
  • In Spain
  • List of Countries
  • For 7 days
  • Water Temperature
  • Satellite Maps
  • Weather Map
  • Weather Widgets
  • user-avatar
    Login

    Hourly Weather Georgetown

    Today, 16 January, Wednesday

    Time Temperature Precipitation Wind Pressure Humidity
    00:00 +20°C° 0 mm 6 mps 737 mmHg 21%
    01:00 +19°C° 0 mm 6 mps 737 mmHg 23%
    02:00 +19°C° 0 mm 6 mps 737 mmHg 23%
    03:00 +17°C° 0 mm 6 mps 737 mmHg 23%
    04:00 +17°C° 0 mm 6 mps 737 mmHg 22%
    05:00 +17°C° 0 mm 6 mps 737 mmHg 22%
    06:00 +16°C° 0 mm 6 mps 737 mmHg 22%
    07:00 +16°C° 0 mm 6 mps 737 mmHg 23%
    08:00 +19°C° 0 mm 6 mps 738 mmHg 21%
    09:00 +21°C° 0 mm 6 mps 738 mmHg 19%
    10:00 +22°C° 0 mm 6 mps 738 mmHg 18%
    11:00 +25°C° 0 mm 5 mps 738 mmHg 19%
    12:00 +26°C° 0 mm 4 mps 737 mmHg 21%
    13:00 +27°C° 0 mm 3 mps 737 mmHg 21%
    14:00 +27°C° 0 mm 3 mps 736 mmHg 24%
    15:00 +28°C° 0 mm 2 mps 736 mmHg 26%
    16:00 +28°C° 0 mm 1 mps 736 mmHg 28%
    17:00 +26°C° 0 mm 2 mps 736 mmHg 31%
    18:00 +23°C° 0 mm 2 mps 736 mmHg 33%
    19:00 +20°C° 0 mm 3 mps 736 mmHg 36%
    20:00 +20°C° 0 mm 3 mps 736 mmHg 31%
    21:00 +20°C° 0 mm 4 mps 736 mmHg 26%
    22:00 +21°C° 0 mm 5 mps 737 mmHg 21%
    23:00 +20°C° 0 mm 6 mps 737 mmHg 21%

    Tomorrow, 17 January, Thursday

    Time Temperature Precipitation Wind Pressure Humidity
    00:00 +20°C° 0 mm 6 mps 737 mmHg 22%
    01:00 +20°C° 0 mm 7 mps 736 mmHg 23%
    02:00 +18°C° 0 mm 7 mps 736 mmHg 23%
    03:00 +18°C° 0 mm 7 mps 736 mmHg 24%
    04:00 +17°C° 0 mm 7 mps 736 mmHg 25%
    05:00 +17°C° 0 mm 7 mps 736 mmHg 25%
    06:00 +17°C° 0 mm 7 mps 737 mmHg 26%
    07:00 +16°C° 0 mm 8 mps 737 mmHg 26%
    08:00 +18°C° 0 mm 7 mps 737 mmHg 23%
    09:00 +21°C° 0 mm 7 mps 737 mmHg 21%
    10:00 +23°C° 0 mm 6 mps 738 mmHg 18%
    11:00 +25°C° 0 mm 5 mps 737 mmHg 20%
    12:00 +27°C° 0 mm 4 mps 737 mmHg 21%
    13:00 +29°C° 0 mm 2 mps 736 mmHg 22%
    14:00 +29°C° 0 mm 2 mps 736 mmHg 23%
    15:00 +29°C° 0 mm 2 mps 735 mmHg 25%
    16:00 +29°C° 0 mm 2 mps 735 mmHg 26%
    17:00 +27°C° 0 mm 2 mps 735 mmHg 30%
    18:00 +24°C° 0 mm 3 mps 735 mmHg 35%
    19:00 +21°C° 0 mm 3 mps 735 mmHg 40%
    20:00 +21°C° 0 mm 4 mps 735 mmHg 34%
    21:00 +21°C° 0 mm 4 mps 736 mmHg 28%
    22:00 +22°C° 0 mm 5 mps 736 mmHg 22%
    23:00 +21°C° 0 mm 6 mps 736 mmHg 22%

    Day after tomorrow, 18 January, Friday

    Time Temperature Precipitation Wind Pressure Humidity
    00:00 +21°C° 0 mm 6 mps 736 mmHg 23%
    01:00 +21°C° 0 mm 7 mps 736 mmHg 24%
    02:00 +20°C° 0 mm 7 mps 736 mmHg 24%
    03:00 +20°C° 0 mm 8 mps 735 mmHg 25%
    04:00 +20°C° 0 mm 8 mps 735 mmHg 26%
    05:00 +18°C° 0 mm 7 mps 735 mmHg 25%
    06:00 +18°C° 0 mm 7 mps 736 mmHg 25%
    07:00 +18°C° 0 mm 7 mps 736 mmHg 25%
    08:00 +21°C° 0 mm 7 mps 736 mmHg 23%
    09:00 +23°C° 0 mm 7 mps 737 mmHg 22%
    10:00 +26°C° 0 mm 6 mps 737 mmHg 21%
    11:00 +27°C° 0 mm 5 mps 737 mmHg 21%
    12:00 +29°C° 0 mm 4 mps 736 mmHg 21%
    13:00 +30°C° 0 mm 3 mps 735 mmHg 22%
    14:00 +30°C° 0 mm 2 mps 735 mmHg 24%
    15:00 +31°C° 0 mm 2 mps 734 mmHg 26%
    16:00 +31°C° 0 mm 1 mps 734 mmHg 28%
    17:00 +29°C° 0 mm 1 mps 734 mmHg 27%
    18:00 +27°C° 0 mm 2 mps 735 mmHg 27%
    19:00 +26°C° 0 mm 3 mps 735 mmHg 26%
    20:00 +25°C° 0 mm 4 mps 735 mmHg 25%
    21:00 +25°C° 0 mm 5 mps 736 mmHg 24%
    22:00 +23°C° 0 mm 5 mps 736 mmHg 23%
    23:00 +23°C° 0 mm 6 mps 736 mmHg 23%

    19 January, Saturday

    Time Temperature Precipitation Wind Pressure Humidity
    00:00 +22°C° 0 mm 6 mps 735 mmHg 23%
    01:00 +22°C° 0 mm 6 mps 735 mmHg 23%
    02:00 +22°C° 0 mm 7 mps 735 mmHg 23%
    03:00 +21°C° 0 mm 7 mps 734 mmHg 23%
    04:00 +21°C° 0 mm 7 mps 734 mmHg 22%
    05:00 +21°C° 0 mm 7 mps 735 mmHg 23%
    06:00 +21°C° 0 mm 7 mps 735 mmHg 23%
    07:00 +20°C° 0 mm 7 mps 736 mmHg 24%
    08:00 +22°C° 0 mm 7 mps 736 mmHg 23%
    09:00 +24°C° 0 mm 7 mps 736 mmHg 23%
    10:00 +27°C° 0 mm 6 mps 737 mmHg 22%
    11:00 +28°C° 0 mm 5 mps 736 mmHg 23%
    12:00 +30°C° 0 mm 4 mps 735 mmHg 23%
    13:00 +31°C° 0 mm 3 mps 734 mmHg 23%
    14:00 +31°C° 0 mm 2 mps 734 mmHg 25%
    15:00 +31°C° 0 mm 1 mps 733 mmHg 26%
    16:00 +31°C° 0 mm 1 mps 733 mmHg 28%
    17:00 +29°C° 0 mm 1 mps 733 mmHg 30%
    18:00 +27°C° 0 mm 2 mps 734 mmHg 32%
    19:00 +24°C° 0 mm 3 mps 734 mmHg 34%
    20:00 +24°C° 0 mm 3 mps 734 mmHg 31%
    21:00 +24°C° 0 mm 3 mps 735 mmHg 28%
    22:00 +24°C° 0 mm 3 mps 735 mmHg 25%
    23:00 +23°C° 0 mm 4 mps 735 mmHg 25%

    20 January, Sunday

    Time Temperature Precipitation Wind Pressure Humidity
    00:00 +23°C° 0 mm 4 mps 735 mmHg 24%
    01:00 +23°C° 0 mm 5 mps 734 mmHg 24%
    02:00 +22°C° 0 mm 5 mps 734 mmHg 24%
    03:00 +22°C° 0 mm 5 mps 734 mmHg 24%
    04:00 +22°C° 0 mm 5 mps 734 mmHg 25%
    05:00 +22°C° 0 mm 5 mps 734 mmHg 25%
    06:00 +22°C° 0 mm 5 mps 735 mmHg 25%
    07:00 +22°C° 0 mm 5 mps 735 mmHg 25%
    08:00 +25°C° 0 mm 5 mps 735 mmHg 25%
    09:00 +26°C° 0 mm 5 mps 736 mmHg 24%
    10:00 +28°C° 0 mm 4 mps 736 mmHg 23%
    11:00 +29°C° 0 mm 3 mps 735 mmHg 25%
    12:00 +30°C° 0 mm 2 mps 734 mmHg 27%
    13:00 +32°C° 0 mm 1 mps 734 mmHg 29%
    14:00 +32°C° 0 mm 1 mps 733 mmHg 27%
    15:00 +32°C° 0 mm 1 mps 733 mmHg 26%
    16:00 +32°C° 0 mm 2 mps 732 mmHg 24%
    17:00 +30°C° 0 mm 2 mps 733 mmHg 28%
    18:00 +28°C° 0 mm 2 mps 733 mmHg 31%
    19:00 +26°C° 0 mm 3 mps 734 mmHg 34%
    20:00 +26°C° 0 mm 3 mps 734 mmHg 34%
    21:00 +25°C° 0 mm 3 mps 734 mmHg 33%
    22:00 +25°C° 0 mm 3 mps 735 mmHg 32%
    23:00 +25°C° 0 mm 3 mps 735 mmHg 29%

    21 January, Monday

    Time Temperature Precipitation Wind Pressure Humidity
    00:00 +25°C° 0 mm 3 mps 734 mmHg 27%
    01:00 +25°C° 0 mm 4 mps 734 mmHg 24%
    02:00 +25°C° 0 mm 4 mps 734 mmHg 24%
    03:00 +23°C° 0 mm 4 mps 734 mmHg 25%
    04:00 +23°C° 0 mm 4 mps 734 mmHg 25%
    05:00 +23°C° 0 mm 4 mps 734 mmHg 25%
    06:00 +23°C° 0 mm 4 mps 734 mmHg 25%
    07:00 +23°C° 0 mm 4 mps 735 mmHg 25%
    08:00 +26°C° 0 mm 4 mps 735 mmHg 24%
    09:00 +28°C° 0 mm 4 mps 735 mmHg 23%
    10:00 +30°C° 0 mm 4 mps 735 mmHg 23%
    11:00 +31°C° 0 mm 3 mps 735 mmHg 23%
    12:00 +32°C° 0 mm 2 mps 734 mmHg 24%
    13:00 +34°C° 0 mm 2 mps 733 mmHg 24%
    14:00 +34°C° 0 mm 2 mps 733 mmHg 24%
    15:00 +34°C° 0 mm 2 mps 732 mmHg 23%
    16:00 +34°C° 0 mm 2 mps 732 mmHg 23%
    17:00 +31°C° 0 mm 2 mps 732 mmHg 25%
    18:00 +29°C° 0 mm 2 mps 732 mmHg 27%
    19:00 +27°C° 0 mm 2 mps 733 mmHg 30%
    20:00 +27°C° 0 mm 3 mps 733 mmHg 29%
    21:00 +27°C° 0 mm 3 mps 733 mmHg 29%
    22:00 +27°C° 0 mm 4 mps 734 mmHg 28%
    23:00 +26°C° 0 mm 4 mps 733 mmHg 27%
    Show more